TimeEDT,TemperatureF,Dew PointF,Humidity,Sea Level PressureIn,VisibilityMPH,Wind Direction,Wind SpeedMPH,Gust SpeedMPH,PrecipitationIn,Events,Conditions,WindDirDegrees,DateUTC
12:53 AM,34.0,26.1,73,30.44,10.0,Calm,Calm,-,N/A,,Clear,0,2013-04-27 04:53:00
1:53 AM,30.0,24.1,79,30.44,10.0,Calm,Calm,-,N/A,,Clear,0,2013-04-27 05:53:00
2:53 AM,28.9,24.1,82,30.44,10.0,Calm,Calm,-,N/A,,Clear,0,2013-04-27 06:53:00
3:53 AM,27.0,24.1,89,30.43,10.0,SE,3.5,-,N/A,,Clear,140,2013-04-27 07:53:00
4:53 AM,28.0,21.9,78,30.43,10.0,Calm,Calm,-,N/A,,Clear,0,2013-04-27 08:53:00
5:53 AM,26.1,23.0,88,30.44,10.0,Calm,Calm,-,N/A,,Clear,0,2013-04-27 09:53:00
6:53 AM,32.0,25.0,75,30.43,10.0,Calm,Calm,-,N/A,,Clear,0,2013-04-27 10:53:00
7:53 AM,39.0,24.1,55,30.43,10.0,North,4.6,-,N/A,,Clear,10,2013-04-27 11:53:00
8:53 AM,44.1,23.0,43,30.43,10.0,Calm,Calm,-,N/A,,Clear,0,2013-04-27 12:53:00
9:53 AM,48.9,24.1,38,30.41,10.0,North,4.6,-,N/A,,Clear,360,2013-04-27 13:53:00
10:53 AM,51.1,24.1,35,30.40,10.0,Variable,3.5,-,N/A,,Clear,0,2013-04-27 14:53:00
11:53 AM,55.0,23.0,29,30.38,10.0,North,8.1,-,N/A,,Clear,360,2013-04-27 15:53:00
12:53 PM,57.9,19.0,22,30.35,10.0,Variable,3.5,-,N/A,,Clear,0,2013-04-27 16:53:00
1:53 PM,60.1,17.1,19,30.33,10.0,NW,8.1,-,N/A,,Clear,310,2013-04-27 17:53:00
2:53 PM,60.1,16.0,18,30.31,10.0,North,5.8,-,N/A,,Clear,350,2013-04-27 18:53:00
3:53 PM,62.1,16.0,17,30.29,10.0,Variable,5.8,-,N/A,,Clear,0,2013-04-27 19:53:00
4:53 PM,62.1,14.0,15,30.28,10.0,Variable,5.8,-,N/A,,Clear,0,2013-04-27 20:53:00
5:53 PM,61.0,12.0,15,30.27,10.0,NNE,3.5,-,N/A,,Clear,20,2013-04-27 21:53:00
6:53 PM,57.0,12.9,18,30.27,10.0,NE,6.9,-,N/A,,Clear,50,2013-04-27 22:53:00
7:53 PM,46.9,26.1,44,30.28,10.0,Calm,Calm,-,N/A,,Clear,0,2013-04-27 23:53:00
8:53 PM,39.0,28.9,67,30.29,10.0,Calm,Calm,-,N/A,,Clear,0,2013-04-28 00:53:00
9:53 PM,35.1,28.0,76,30.30,10.0,Calm,Calm,-,N/A,,Clear,0,2013-04-28 01:53:00
10:53 PM,33.1,27.0,78,30.30,10.0,Calm,Calm,-,N/A,,Clear,0,2013-04-28 02:53:00
11:53 PM,30.9,25.0,79,30.30,10.0,Calm,Calm,-,N/A,,Clear,0,2013-04-28 03:53:00